TimeEST,TemperatureF,Dew PointF,Humidity,Sea Level PressureIn,VisibilityMPH,Wind Direction,Wind SpeedMPH,Gust SpeedMPH,PrecipitationIn,Events,Conditions,WindDirDegrees,DateUTC
12:25 AM,44.6,42.8,93,29.84,2.5,ENE,6.9,-,0.01,Rain,Light Rain,60,2012-12-08 05:25:00
12:53 AM,44.1,42.1,93,29.84,2.5,NE,6.9,-,0.01,,Overcast,50,2012-12-08 05:53:00
1:53 AM,44.1,43.0,96,29.83,2.5,NE,4.6,-,N/A,,Overcast,50,2012-12-08 06:53:00
2:20 AM,44.6,42.8,93,29.82,2.0,NNE,5.8,-,0.00,Rain,Light Rain,30,2012-12-08 07:20:00
2:34 AM,44.6,42.8,93,29.82,2.5,NNE,4.6,-,0.00,,Overcast,30,2012-12-08 07:34:00
2:48 AM,44.6,42.8,93,29.82,1.8,NNE,5.8,-,0.01,Rain,Light Rain,20,2012-12-08 07:48:00
2:53 AM,44.1,42.1,93,29.84,1.8,NNE,6.9,-,0.01,Rain,Light Rain,20,2012-12-08 07:53:00
3:53 AM,43.0,42.1,97,29.84,1.8,Calm,Calm,-,0.00,,Overcast,0,2012-12-08 08:53:00
4:32 AM,42.8,42.8,100,29.82,2.0,Calm,Calm,-,0.00,Rain,Light Rain,0,2012-12-08 09:32:00
4:40 AM,42.8,41.0,93,29.81,1.5,NE,3.5,-,0.01,Rain,Light Rain,50,2012-12-08 09:40:00
4:53 AM,43.0,41.0,93,29.82,1.8,NNE,3.5,-,0.01,Rain,Light Rain,30,2012-12-08 09:53:00
5:01 AM,42.8,41.0,93,29.81,2.0,Calm,Calm,-,0.00,,Overcast,0,2012-12-08 10:01:00
6:53 AM,43.0,42.1,97,29.85,1.2,NW,3.5,-,N/A,,Overcast,320,2012-12-08 11:53:00
7:49 AM,42.8,42.8,100,29.84,0.8,Calm,Calm,-,N/A,,Mist,0,2012-12-08 12:49:00
7:53 AM,43.0,42.1,97,29.85,0.8,Calm,Calm,-,N/A,,Mist,0,2012-12-08 12:53:00
8:53 AM,43.0,42.1,97,29.87,0.2,Calm,Calm,-,N/A,Fog,Fog,0,2012-12-08 13:53:00
9:53 AM,43.0,42.1,97,29.90,0.2,Calm,Calm,-,N/A,Fog,Fog,0,2012-12-08 14:53:00
10:53 AM,44.1,43.0,96,29.91,0.5,NW,4.6,-,N/A,Fog,Fog,320,2012-12-08 15:53:00
11:45 AM,44.6,42.8,93,29.90,1.8,NNW,5.8,-,N/A,,Overcast,340,2012-12-08 16:45:00
11:48 AM,44.6,42.8,93,29.90,2.5,NW,6.9,-,N/A,,Overcast,320,2012-12-08 16:48:00
11:53 AM,44.1,43.0,96,29.91,4.0,NNW,5.8,-,N/A,,Overcast,340,2012-12-08 16:53:00
12:31 PM,44.6,42.8,93,29.90,8.0,North,3.5,-,N/A,,Overcast,350,2012-12-08 17:31:00
12:53 PM,45.0,42.1,90,29.91,10.0,NNW,4.6,-,N/A,,Overcast,340,2012-12-08 17:53:00
1:53 PM,41.0,37.9,89,29.94,9.0,NNE,12.7,-,N/A,,Overcast,20,2012-12-08 18:53:00
2:53 PM,39.9,37.0,89,29.98,10.0,NNE,10.4,-,N/A,,Overcast,20,2012-12-08 19:53:00
3:53 PM,39.9,36.0,86,30.01,10.0,North,6.9,-,N/A,,Overcast,10,2012-12-08 20:53:00
4:53 PM,37.9,35.1,89,30.04,10.0,NNE,8.1,-,N/A,,Overcast,30,2012-12-08 21:53:00
5:12 PM,37.4,35.6,93,30.03,10.0,NE,8.1,-,N/A,,Overcast,40,2012-12-08 22:12:00
5:36 PM,39.2,35.6,87,30.04,10.0,NNE,6.9,-,N/A,,Overcast,20,2012-12-08 22:36:00
5:50 PM,39.2,35.6,87,30.05,10.0,NNE,5.8,-,N/A,,Overcast,20,2012-12-08 22:50:00
5:53 PM,39.0,35.1,86,30.06,10.0,NNE,5.8,-,N/A,,Overcast,20,2012-12-08 22:53:00
6:53 PM,37.9,34.0,86,30.09,10.0,NNE,8.1,-,N/A,,Overcast,20,2012-12-08 23:53:00
7:53 PM,36.0,33.1,89,30.10,10.0,NNE,6.9,-,N/A,,Scattered Clouds,30,2012-12-09 00:53:00
8:53 PM,36.0,32.0,86,30.12,10.0,NE,6.9,-,N/A,,Clear,40,2012-12-09 01:53:00
9:53 PM,35.1,30.9,85,30.14,10.0,NE,6.9,-,N/A,,Partly Cloudy,40,2012-12-09 02:53:00
10:08 PM,35.6,30.2,81,30.12,10.0,NNE,6.9,-,N/A,,Mostly Cloudy,30,2012-12-09 03:08:00
10:53 PM,35.1,30.9,85,30.14,10.0,NE,5.8,-,N/A,,Overcast,50,2012-12-09 03:53:00
11:53 PM,35.1,32.0,89,30.16,10.0,NE,5.8,-,N/A,,Overcast,40,2012-12-09 04:53:00